Date String (YYYY-MM-DD hh:mm:ss) UTC,Instrument flags,Ambient pressure (hPa),Sample flow (lpm),Bypass flow (lpm),Sample temperature (°C),Ambient temperature (°C),ASC tube jacket temperature (°C),LED temperature (°C),Box temperature (°C),Sample RH (%),Span deviation,Mass concentration (μg/m³),Mass concentration (μg/m³),Mass concentration (μg/m³)
DateTimeUTC,F1_M11,P_M11,Q1_M11,Q2_M11,T1_M11,T2_M11,T3_M11,T4_M11,T5_M11,U1_M11,ZSPAN_M11,X0_M11,X2_M11,X1_M11
2022-09-27 10:00:00,,0833.0,4.99,0.00,30.6,28.9,00.0,39.4,32.3,14.2,0000.0,0008.82,0003.71,0003.20
2022-09-27 10:01:00,,0833.1,5.00,0.00,30.6,29.0,00.0,39.4,32.4,14.1,0000.0,0008.99,0003.71,0003.21
2022-09-27 10:02:00,,0833.1,5.01,0.00,30.6,29.0,00.0,39.4,32.4,14.1,0000.0,0009.06,0003.71,0003.21
2022-09-27 10:03:00,,0833.1,4.99,0.00,30.6,28.9,00.0,39.4,32.4,14.1,0000.0,0009.11,0003.72,0003.22
2022-09-27 10:04:00,,0833.1,5.01,0.00,30.6,28.9,00.0,39.4,32.4,14.1,0000.0,0009.05,0003.73,0003.23
2022-09-27 10:05:00,,0833.1,5.00,0.00,30.6,28.9,00.0,39.4,32.3,14.1,0000.0,0008.50,0003.71,0003.24
2022-09-27 10:06:00,,0833.1,5.01,0.00,30.6,29.0,00.0,39.4,32.4,14.1,0000.0,0008.46,0003.71,0003.24
2022-09-27 10:07:00,,0833.1,4.99,0.00,30.6,29.0,00.0,39.4,32.4,14.1,0000.0,0008.70,0003.70,0003.24
2022-09-27 10:08:00,,0833.1,5.00,0.00,30.6,29.0,00.0,39.4,32.4,14.1,0000.0,0008.70,0003.71,0003.23
2022-09-27 10:09:00,,0833.1,5.00,0.00,30.6,29.0,00.0,39.4,32.4,14.1,0000.0,0008.06,0003.73,0003.24
2022-09-27 10:10:00,,0833.1,5.01,0.00,30.6,28.9,00.0,39.4,32.4,14.1,0000.0,0007.98,0003.72,0003.24
2022-09-27 10:11:00,,0833.1,5.00,0.00,30.6,28.9,00.0,39.4,32.4,14.1,0000.0,0007.38,0003.69,0003.23
2022-09-27 10:12:00,,0833.1,5.00,0.00,30.6,29.0,00.0,39.4,32.4,14.2,0000.0,0007.01,0003.71,0003.24
2022-09-27 10:13:00,,0833.1,5.00,0.00,30.6,28.9,00.0,39.4,32.3,14.2,0000.0,0006.85,0003.72,0003.24
2022-09-27 10:14:00,,0833.1,5.00,0.00,30.6,28.9,00.0,39.4,32.3,14.2,0000.0,0006.90,0003.70,0003.23
2022-09-27 10:15:00,,0833.1,5.00,0.00,30.6,28.9,00.0,39.4,32.3,14.2,0000.0,0007.19,0003.68,0003.23
2022-09-27 10:16:00,,0833.1,5.01,0.00,30.6,28.9,00.0,39.4,32.3,14.1,0000.0,0007.46,0003.69,0003.22
2022-09-27 10:17:00,,0833.0,4.99,0.00,30.6,28.9,00.0,39.4,32.3,14.2,0000.0,0007.38,0003.68,0003.22
2022-09-27 10:18:00,,0833.1,5.01,0.00,30.6,28.9,00.0,39.4,32.3,14.2,0000.0,0006.90,0003.69,0003.22
2022-09-27 10:19:00,,0833.1,4.99,0.00,30.6,28.9,00.0,39.4,32.4,14.2,0000.0,0006.91,0003.68,0003.22
2022-09-27 10:20:00,,0833.0,5.01,0.00,30.6,28.9,00.0,39.4,32.3,14.2,0000.0,0007.81,0003.69,0003.23
2022-09-27 10:21:00,,0833.0,4.99,0.00,30.6,29.0,00.0,39.4,32.4,14.1,0000.0,0008.01,0003.72,0003.23
2022-09-27 10:22:00,,0833.1,5.01,0.00,30.6,29.0,00.0,39.4,32.3,14.1,0000.0,0007.99,0003.69,0003.22
2022-09-27 10:23:00,,0833.1,4.99,0.00,30.6,29.0,00.0,39.4,32.3,14.2,0000.0,0007.97,0003.66,0003.21
2022-09-27 10:24:00,,0833.1,5.01,0.00,30.6,29.0,00.0,39.4,32.4,14.1,0000.0,0007.96,0003.64,0003.20
2022-09-27 10:25:00,,0833.1,5.00,0.00,30.6,29.0,00.0,39.4,32.4,14.1,0000.0,0008.13,0003.66,0003.20
2022-09-27 10:26:00,,0833.1,5.01,0.00,30.6,29.0,00.0,39.4,32.4,14.2,0000.0,0007.96,0003.66,0003.19
2022-09-27 10:27:00,,0833.1,4.99,0.00,30.6,29.0,00.0,39.4,32.4,14.2,0000.0,0008.17,0003.65,0003.19
2022-09-27 10:28:00,,0833.1,5.02,0.00,30.6,29.0,00.0,39.3,32.4,14.2,0000.0,0008.54,0003.66,0003.20
2022-09-27 10:29:00,,0833.1,4.99,0.00,30.6,29.0,00.0,39.4,32.4,14.2,0000.0,0008.52,0003.64,0003.19
2022-09-27 10:30:00,,0833.1,5.01,0.00,30.6,29.0,00.0,39.4,32.4,14.2,0000.0,0009.27,0003.64,0003.19
2022-09-27 10:31:00,,0833.1,4.99,0.00,30.6,29.0,00.0,39.3,32.4,14.2,0000.0,0008.93,0003.63,0003.19
2022-09-27 10:32:00,,0833.1,5.01,0.00,30.6,29.0,00.0,39.3,32.4,14.1,0000.0,0008.86,0003.63,0003.19
2022-09-27 10:33:00,,0833.1,4.99,0.00,30.6,29.0,00.0,39.3,32.4,14.2,0000.0,0009.72,0003.64,0003.18
2022-09-27 10:34:00,,0833.1,5.01,0.00,30.6,29.0,00.0,39.3,32.4,14.2,0000.0,0009.82,0003.63,0003.16
2022-09-27 10:35:00,,0833.0,4.99,0.00,30.6,29.0,00.0,39.3,32.4,14.2,0000.0,0009.72,0003.61,0003.16
2022-09-27 10:36:00,,0833.1,5.01,0.00,30.6,29.0,00.0,39.3,32.4,14.2,0000.0,0009.41,0003.61,0003.16
2022-09-27 10:37:00,,0833.1,4.99,0.00,30.6,29.0,00.0,39.4,32.4,14.2,0000.0,0009.56,0003.64,0003.17
2022-09-27 10:38:00,,0833.1,5.01,0.00,30.6,29.0,00.0,39.4,32.3,14.2,0000.0,0009.45,0003.64,0003.16
2022-09-27 10:39:00,,0833.1,4.99,0.00,30.6,29.0,00.0,39.4,32.4,14.3,0000.0,0009.20,0003.66,0003.16
2022-09-27 10:40:00,,0833.1,5.01,0.00,30.6,29.0,00.0,39.4,32.4,14.3,0000.0,0009.36,0003.68,0003.17
2022-09-27 10:41:00,,0833.1,5.01,0.00,30.6,29.0,00.0,39.4,32.4,14.4,0000.0,0009.15,0003.68,0003.16
2022-09-27 10:42:00,,0833.1,4.99,0.00,30.6,29.0,00.0,39.4,32.4,14.3,0000.0,0008.66,0003.69,0003.15
2022-09-27 10:43:00,,0833.1,5.01,0.00,30.6,29.0,00.0,39.3,32.4,14.4,0000.0,0008.47,0003.65,0003.15
2022-09-27 10:44:00,,0833.1,5.00,0.00,30.6,29.0,00.0,39.3,32.4,14.4,0000.0,0007.86,0003.66,0003.16
2022-09-27 10:45:00,,0833.1,5.01,0.00,30.6,29.0,00.0,39.3,32.3,14.3,0000.0,0007.85,0003.68,0003.16
2022-09-27 10:46:00,,0833.1,4.99,0.00,30.6,28.9,00.0,39.4,32.3,14.2,0000.0,0008.01,0003.73,0003.17
2022-09-27 10:47:00,,0833.1,5.00,0.00,30.6,28.9,00.0,39.4,32.3,14.2,0000.0,0008.11,0003.75,0003.17
2022-09-27 10:48:00,,0833.1,5.00,0.00,30.6,28.9,00.0,39.3,32.3,14.3,0000.0,0008.04,0003.72,0003.17
2022-09-27 10:49:00,,0833.1,5.01,0.00,30.6,28.9,00.0,39.3,32.3,14.3,0000.0,0008.14,0003.72,0003.16
2022-09-27 10:50:00,,0833.2,4.99,0.00,30.6,28.9,00.0,39.3,32.3,14.2,0000.0,0007.99,0003.68,0003.15
2022-09-27 10:51:00,,0833.2,5.01,0.00,30.5,28.9,00.0,39.3,32.3,14.2,0000.0,0008.00,0003.69,0003.14
2022-09-27 10:52:00,,0833.1,4.99,0.00,30.5,28.9,00.0,39.3,32.3,14.2,0000.0,0008.15,0003.71,0003.14
2022-09-27 10:53:00,,0833.1,5.00,0.00,30.5,28.9,00.0,39.3,32.3,14.2,0000.0,0008.05,0003.68,0003.14
2022-09-27 10:54:00,,0833.1,4.99,0.00,30.5,28.9,00.0,39.3,32.3,14.2,0000.0,0008.12,0003.68,0003.14
2022-09-27 10:55:00,,0833.2,5.00,0.00,30.5,28.9,00.0,39.3,32.3,14.2,0000.0,0008.55,0003.65,0003.14
2022-09-27 10:56:00,,0833.2,5.00,0.00,30.5,28.9,00.0,39.3,32.3,14.2,0000.0,0009.47,0003.63,0003.14
2022-09-27 10:57:00,,0833.2,5.01,0.00,30.5,28.8,00.0,39.3,32.3,14.2,0000.0,0009.91,0003.61,0003.14
2022-09-27 10:58:00,,0833.2,4.99,0.00,30.5,28.9,00.0,39.3,32.3,14.3,0000.0,0009.79,0003.56,0003.14
2022-09-27 10:59:00,,0833.2,5.00,0.00,30.5,28.9,00.0,39.3,32.3,14.2,0000.0,0009.78,0003.55,0003.13
